Flight Track Log - Related Links

Times and Time Zones

All times are in EDT time to prevent confusion due to time zone crossing. See the UAL326 flight status page for this flight to view local times or setup timezone preferences in your user account.

Time Position Orientation Groundspeed Altitude Reporting Facility
EDT Latitude Longitude Course Direction KTS MPH feet Rate Location/Type
Sun 02:01:07 PM 28.4000 -81.3000 90° East 161 185 600  Level Orlando TRACON
Sun 02:02:44 PM 28.3500 -81.2167 124° Southeast 250 288 3,300 2,064 Climbing Orlando TRACON
Sun 02:03:44 PM 28.4167 -81.1667 33° Northeast 289 333 6,000 2,900 Climbing Orlando TRACON
Sun 02:04:00 PM 28.2029 -80.8489 114° Southeast  Level FlightAware Approximate
Sun 02:04:44 PM 28.4500 -81.0833 66° East 290 334 9,100  Level Orlando TRACON
Sun 02:05:00 PM 28.1555 -80.7305 114° Southeast  Level FlightAware Approximate
Sun 02:06:00 PM 28.1000 -80.6307 90° East  Level FlightAware Approximate
Sun 02:07:10 PM 28.4686 -80.8450 85° East 317 365 14,400  Level Miami Center
Sun 02:08:10 PM 28.5025 -80.7447 69° East 322 371 16,700 1,850 Climbing Miami Center
Sun 02:09:10 PM 28.5364 -80.6514 68° East 343 395 18,100 1,200 Climbing Miami Center
Sun 02:10:10 PM 28.5808 -80.5467 64° Northeast 362 417 19,100 1,000 Climbing Miami Center
Sun 02:11:10 PM 28.6383 -80.4161 63° Northeast 399 459 20,100 1,050 Climbing Miami Center
Sun 02:12:10 PM 28.6894 -80.2922 65° Northeast 422 486 21,200 1,200 Climbing Miami Center
Sun 02:13:10 PM 28.7447 -80.1639 64° Northeast 440 506 22,500 1,150 Climbing Miami Center
Sun 02:14:10 PM 28.8183 -80.0453 55° Northeast 445 512 23,500 1,050 Climbing Miami Center
Sun 02:15:10 PM 28.9142 -79.9556 39° Northeast 445 512 24,600 1,000 Climbing Miami Center
Sun 02:16:10 PM 29.0142 -79.8611 40° Northeast 445 512 25,500 1,050 Climbing Miami Center
Sun 02:17:10 PM 29.1164 -79.7664 39° Northeast 461 531 26,700 1,050 Climbing Miami Center
Sun 02:18:10 PM 29.2164 -79.6667 41° Northeast 467 537 27,600 1,150 Climbing Miami Center
Sun 02:19:10 PM 29.3225 -79.5719 38° Northeast 472 543 29,000 1,350 Climbing Miami Center
Sun 02:20:10 PM 29.4222 -79.4792 39° Northeast 472 543 30,300 1,200 Climbing Miami Center
Sun 02:21:10 PM 29.5239 -79.3861 39° Northeast 472 543 31,400 1,000 Climbing Miami Center
Sun 02:22:10 PM 29.6217 -79.2906 40° Northeast 466 536 32,300 824 Climbing Miami Center
Sun 02:23:43 PM 29.7939 -79.2119 22° Northeast 447 514 33,500 941 Climbing Jacksonville Center
Sun 02:24:43 PM 29.9181 -79.1783 13° North 447 514 34,700 750 Climbing Jacksonville Center
Sun 02:25:43 PM 30.0381 -79.1450 14° North 434 499 35,000 150 Climbing Jacksonville Center
Sun 02:26:43 PM 30.1581 -79.1092 14° North 434 499 35,000  Level Jacksonville Center
Sun 02:27:43 PM 30.2806 -79.0778 12° North 434 499 35,000  Level Jacksonville Center
Sun 02:28:43 PM 30.3983 -79.0419 15° North 434 499 35,000  Level Jacksonville Center
Sun 02:29:43 PM 30.5206 -79.0081 13° North 442 509 35,000  Level Jacksonville Center
Sun 02:30:43 PM 30.6403 -78.9717 15° North 448 516 35,000  Level Jacksonville Center
Sun 02:31:43 PM 30.7667 -78.9375 13° North 448 516 35,000  Level Jacksonville Center
Sun 02:32:43 PM 30.8867 -78.9033 14° North 448 516 35,000  Level Jacksonville Center
Sun 02:33:43 PM 31.0108 -78.8692 13° North 448 516 35,000 -50 Level Jacksonville Center
Sun 02:34:43 PM 31.1269 -78.8400 12° North 441 507 34,900  Descending Jacksonville Center
Sun 02:35:43 PM 31.2508 -78.7981 16° North 446 513 35,000 450 Climbing Jacksonville Center
Sun 02:36:43 PM 31.3708 -78.7661 13° North 446 513 35,800 850 Climbing Jacksonville Center
Sun 02:37:43 PM 31.4908 -78.7317 14° North 451 519 36,700 550 Climbing Jacksonville Center
Sun 02:38:43 PM 31.6067 -78.6994 13° North 438 504 36,900 150 Climbing Jacksonville Center
Sun 02:39:43 PM 31.7181 -78.6653 15° North 428 493 37,000  Climbing Jacksonville Center
Sun 02:40:43 PM 31.8339 -78.6331 13° North 428 493 36,900 -50 Descending Jacksonville Center
Sun 02:41:43 PM 31.9456 -78.5986 15° North 423 487 36,900 50 Level Jacksonville Center
Sun 02:42:43 PM 32.0614 -78.5661 13° North 418 481 37,000 50 Climbing Jacksonville Center
Sun 02:43:44 PM 32.1750 -78.5314 15° North 413 475 37,000  Level Jacksonville Center
Sun 02:44:43 PM 32.2886 -78.4964 15° North 413 475 37,000  Level Jacksonville Center
Sun 02:45:43 PM 32.3958 -78.4642 14° North 407 468 37,000  Level Jacksonville Center
Sun 02:46:43 PM 32.5094 -78.4292 15° North 413 475 37,000 -50 Level Jacksonville Center
Sun 02:47:43 PM 32.6211 -78.3939 15° North 413 475 36,900  Descending Jacksonville Center
Sun 02:48:43 PM 32.7347 -78.3636 13° North 413 475 37,000 50 Climbing Jacksonville Center
Sun 02:49:43 PM 32.8481 -78.3283 15° North 413 475 37,000  Level Jacksonville Center
Sun 02:50:43 PM 32.9617 -78.2953 14° North 413 475 37,000 -50 Level Jacksonville Center
Sun 02:51:43 PM 33.0772 -78.2597 14° North 413 475 36,900 -50 Descending Jacksonville Center
Sun 02:52:44 PM 33.1950 -78.2261 13° North 418 481 36,900 50 Level Jacksonville Center
Sun 02:53:43 PM 33.3106 -78.1903 15° North 424 488 37,000 38 Climbing Jacksonville Center
Sun 02:55:20 PM 33.5003 -78.1342 14° North 430 495 37,000  Level Washington Center
Sun 02:56:21 PM 33.6197 -78.1003 13° North 435 501 37,000  Level Washington Center
Sun 02:57:19 PM 33.7394 -78.0642 14° North 435 501 37,000  Level Washington Center
Sun 02:58:19 PM 33.8569 -78.0300 14° North 435 501 37,000  Level Washington Center
Sun 02:59:20 PM 33.9936 -77.9814 16° North 441 507 37,000  Level Washington Center
Sun 03:00:20 PM 34.1169 -77.9750 North 441 507 37,000  Level Washington Center
Sun 03:01:21 PM 34.2378 -77.9758 360° North 435 501 37,000 -50 Level Washington Center
Sun 03:02:21 PM 34.3650 -77.9772 359° North 441 507 36,900  Descending Washington Center
Sun 03:03:18 PM 34.4861 -77.9781 360° North 441 507 37,000 51 Climbing Washington Center
Sun 03:04:19 PM 34.6094 -77.9642 North 436 502 37,000 -50 Level Washington Center
Sun 03:05:19 PM 34.7308 -77.9422 North 441 507 36,900  Descending Washington Center
Sun 03:06:20 PM 34.8464 -77.9000 17° North 441 507 37,000 50 Climbing Washington Center
Sun 03:07:20 PM 34.9619 -77.8603 16° North 435 501 37,000  Level Washington Center
Sun 03:08:21 PM 35.0817 -77.8128 18° North 440 506 37,000 -202 Level Washington Center
Sun 03:09:19 PM 35.1975 -77.7653 19° North 440 506 36,600 -508 Descending Washington Center
Sun 03:10:19 PM 35.3172 -77.7225 16° North 440 506 36,000 -545 Descending Washington Center
Sun 03:11:20 PM 35.4450 -77.6853 13° North 445 512 35,500 -787 Descending Washington Center
Sun 03:12:21 PM 35.5644 -77.6525 13° North 451 519 34,400 -756 Descending Washington Center
Sun 03:13:19 PM 35.6903 -77.6253 10° North 451 519 34,000 -202 Descending Washington Center
Sun 03:14:20 PM 35.8031 -77.6228 North 457 526 34,000  Level Washington Center
Sun 03:15:21 PM 35.9300 -77.6364 355° North 452 520 34,000  Level Washington Center
Sun 03:16:21 PM 36.0550 -77.6525 354° North 452 520 34,000 -1,500 Level Washington Center
Sun 03:17:21 PM 36.1839 -77.6689 354° North 452 520 31,000 -3,681 Descending Washington Center
Sun 03:18:20 PM 36.3131 -77.6825 355° North 463 533 26,700 -2,521 Descending Washington Center
Sun 03:19:20 PM 36.4400 -77.6989 354° North 463 533 26,000 -347 Descending Washington Center
Sun 03:20:21 PM 36.5692 -77.7125 355° North 463 533 26,000  Level Washington Center
Sun 03:21:19 PM 36.7003 -77.7292 354° North 468 539 26,000  Level Washington Center
Sun 03:22:20 PM 36.8314 -77.7458 354° North 468 539 26,000 -393 Level Washington Center
Sun 03:23:21 PM 36.9586 -77.7597 355° North 462 532 25,200 -605 Descending Washington Center
Sun 03:24:19 PM 37.0689 -77.7706 356° North 433 498 24,800 -1,008 Descending Washington Center
Sun 03:25:20 PM 37.1708 -77.7839 354° North 395 455 23,200 -1,388 Descending Washington Center
Sun 03:26:20 PM 37.2708 -77.7972 354° North 369 425 22,000 -595 Descending Washington Center
Sun 03:27:21 PM 37.3686 -77.8078 355° North 355 409 22,000  Level Washington Center
Sun 03:28:21 PM 37.4683 -77.8211 354° North 355 409 22,000 -51 Level Washington Center
Sun 03:29:19 PM 37.5647 -77.8056 North 350 403 21,900 -763 Descending Washington Center
Sun 03:30:19 PM 37.6553 -77.7533 25° Northeast 347 399 20,500 -1,537 Descending Washington Center
Sun 03:31:20 PM 37.7458 -77.7033 24° Northeast 347 399 18,800 -1,623 Descending Washington Center
Sun 03:32:21 PM 37.8322 -77.6506 26° Northeast 347 399 17,200 -1,636 Descending Washington Center
Sun 03:33:21 PM 37.9167 -77.6000 25° Northeast 334 384 15,500 -2,085 Descending Washington Center
Sun 03:34:19 PM 37.9967 -77.5522 25° Northeast 323 372 13,100 -2,420 Descending Washington Center
Sun 03:35:20 PM 38.0828 -77.5069 22° Northeast 305 351 10,700 -1,525 Descending Washington Center
Sun 03:36:21 PM 38.1608 -77.4614 25° Northeast 305 351 10,000 -356 Descending Washington Center
Sun 03:37:18 PM 38.2367 -77.4131 27° Northeast 299 344 10,000 -712 Level Washington Center
Sun 03:38:19 PM 38.3144 -77.3700 23° Northeast 299 344 8,600 -1,289 Descending Washington Center
Sun 03:39:19 PM 38.3939 -77.3586 North 293 337 7,400 -1,082 Descending Washington Center
Sun 03:40:21 PM 38.4750 -77.3633 357° North 287 330 6,400 -984 Descending Washington Center
Sun 03:41:21 PM 38.5564 -77.3653 359° North 287 330 5,400 -814 Descending Washington Center
Sun 03:42:19 PM 38.6375 -77.3672 359° North 287 330 4,800 -565 Descending Washington Center
Sun 03:42:46 PM 38.6667 -77.3667 North 289 333 4,600 -483 Descending Potomac TRACON
Sun 03:43:46 PM 38.7500 -77.3500 North 286 329 4,100 -300 Descending Potomac TRACON
Sun 03:44:46 PM 38.8333 -77.3500 360° North 281 323 4,000 -50 Descending Potomac TRACON
Sun 03:45:46 PM 38.9167 -77.3500 360° North 279 321 4,000  Level Potomac TRACON
Sun 03:46:46 PM 38.9833 -77.3500 360° North 242 278 4,000  Level Potomac TRACON
Sun 03:47:46 PM 39.0500 -77.3500 360° North 240 276 4,000  Level Potomac TRACON
Sun 03:48:47 PM 39.1167 -77.3500 360° North 240 276 4,000 -347 Level Potomac TRACON
Sun 03:49:47 PM 39.1833 -77.3500 360° North 231 266 3,300 -500 Descending Potomac TRACON
Sun 03:50:47 PM 39.2333 -77.3667 346° North 244 281 3,000 -400 Descending Potomac TRACON
Sun 03:51:47 PM 39.2167 -77.4333 252° West 216 249 2,500 -248 Descending Potomac TRACON
Sun 03:52:48 PM 39.1500 -77.4333 180° South 195 224 2,500  Level Potomac TRACON

Login

Don't have an account? Register now (free) for customized features, flight alerts, and more!